Location: ?????????
(55.6553°N, 38.9075°E)
Time: 01:50:14
(UTC+00:00)

Cosmos 1953 - Pass Details

Date: 18 October 2019
Orbit: 538 x 559 km, 82.5° (Epoch: 17 November)

Event Time Altitude Azimuth Distance (km) Brightness Sun altitude
Rises 01:41:48 0° 349° (NNW) 2,753 5.9 -20.1°
Reaches altitude 10° 01:44:00 10° 351° (N) 1,850 5.0 -19.8°
Maximum altitude 01:48:04 72° 77° (ENE) 588 2.5 -19.3°
Drops below altitude 10° 01:52:04 10° 162° (SSE) 1,822 5.1 -18.7°
Sets 01:54:13 0° 164° (SSE) 2,707 5.9 -18.4°
